Printer-friendly version

IAU Minor Planet Center

Minor Planet Center

MPEC 2005-O42 : 2005 FY9

The following Minor Planet Electronic Circular may be linked-to from your own Web pages, but must not otherwise be redistributed electronically.


Read MPEC 2005-O41 Read MPEC 2005-O43


M.P.E.C. 2005-O42                                Issued 2005 July 29, 19:50 UT

     The Minor Planet Electronic Circulars contain information on unusual
         minor planets and routine data on comets.  They are published
   on behalf of Commission 20 of the International Astronomical Union by the
          Minor Planet Center, Smithsonian Astrophysical Observatory,
                          Cambridge, MA 02138, U.S.A.

                  Supported in part by the Brinson Foundation
             Prepared using the Tamkin Foundation Computer Network

                              MPC@CFA.HARVARD.EDU
          URL http://cfa-www.harvard.edu/iau/mpc.html  ISSN 1523-6714

                                   2005 FY9

Observations:
     K05F09Y  C2003 02 01.55278 12 12 06.39 +31 03 25.8                 EO042644
     K05F09Y  C2003 03 10.49375 12 09 55.79 +31 25 15.9                 EO042644
     K05F09Y* C2005 03 31.25938 12 15 58.81 +30 43 07.8          16.8 R EO042644
     K05F09Y  C2005 03 31.34652 12 15 58.42 +30 43 09.2          16.9 R EO042644
     K05F09Y  C2005 03 31.41616 12 15 58.13 +30 43 10.3          16.9 R EO042644
     K05F09Y  C2005 04 05.17658 12 15 37.69 +30 44 16.6          16.9 R EO042644

Observer details:
644 Palomar Mountain/NEAT.  Observers NEAT Team, M. E. Brown, C. A. Trujillo,
    D. Rabinowitz.  1.2-m Oschin Schmidt + CCD.

Orbital elements:
2005 FY9
Epoch 2005 Aug. 18.0 TT = JDT 2453600.5                 MPC
M 213.91871              (2000.0)            P               Q
n   0.00319661     Peri.  245.84775     +0.70933335     +0.51938413
a  45.6397027      Node    79.41551     -0.32755355     +0.84151339
e   0.1518904      Incl.   28.99834     -0.62414330     +0.14864500
P 308              H    0.1           G   0.15           U   8
Residuals in seconds of arc
030201 644  0.6+  0.7+    050331 644  0.0   0.0     050331 644  0.1+  0.0
030310 644  0.6-  0.8-    050331 644  0.1-  0.0     050405 644  0.2+  0.1+

Ephemeris:
2005 FY9                 a,e,i = 45.64, 0.15, 29                 q = 38.707
Date    TT    R. A. (2000) Decl.     Delta      r     Elong.  Phase     V
2005 07 29    12 13.66   +29 57.9   52.303   51.670    51.0     0.9    17.4
2005 08 08    12 14.23   +29 50.3   52.395   51.668    43.8     0.8    17.4
2005 08 18    12 14.91   +29 42.9   52.466   51.666    37.5     0.7    17.4
2005 08 28    12 15.66   +29 35.9   52.515   51.665    32.3     0.6    17.4
2005 09 07    12 16.47   +29 29.5   52.541   51.663    29.1     0.5    17.4
2005 09 17    12 17.33   +29 23.7   52.541   51.661    28.6     0.5    17.4
2005 09 27    12 18.21   +29 18.7   52.517   51.659    30.9     0.6    17.4
2005 10 07    12 19.10   +29 14.7   52.468   51.658    35.5     0.6    17.4
2005 10 17    12 19.96   +29 11.8   52.396   51.656    41.7     0.7    17.4
2005 10 27    12 20.79   +29 10.0   52.302   51.654    48.9     0.8    17.4
2005 11 06    12 21.55   +29 09.4   52.189   51.653    56.8     0.9    17.4
2005 11 16    12 22.23   +29 10.0   52.060   51.651    65.1     1.0    17.4
2005 11 26    12 22.81   +29 11.8   51.918   51.649    73.6     1.1    17.4
2005 12 06    12 23.28   +29 14.8   51.769   51.648    82.4     1.1    17.4
2005 12 16    12 23.62   +29 18.8   51.615   51.646    91.3     1.1    17.4
2005 12 26    12 23.82   +29 23.7   51.462   51.644   100.1     1.1    17.4
2006 01 05    12 23.88   +29 29.4   51.315   51.642   109.0     1.0    17.4
2006 01 15    12 23.80   +29 35.6   51.177   51.641   117.6     1.0    17.4
2006 01 25    12 23.57   +29 42.2   51.054   51.639   126.0     0.9    17.3
2006 02 04    12 23.22   +29 48.9   50.949   51.637   133.8     0.8    17.3
2006 02 14    12 22.76   +29 55.4   50.866   51.635   140.9     0.7    17.3
2006 02 24    12 22.19   +30 01.6   50.806   51.634   146.4     0.6    17.3
2006 03 06    12 21.55   +30 07.3   50.772   51.632   149.8     0.6    17.3
2006 03 16    12 20.86   +30 12.1   50.764   51.630   150.3     0.5    17.3
2006 03 26    12 20.14   +30 16.0   50.783   51.629   147.7     0.6    17.3
2006 04 05    12 19.42   +30 18.7   50.827   51.627   142.8     0.7    17.3
2006 04 15    12 18.72   +30 20.3   50.895   51.625   136.4     0.8    17.3
2006 04 25    12 18.08   +30 20.7   50.984   51.623   129.0     0.9    17.3
2006 05 05    12 17.50   +30 19.8   51.092   51.622   121.2     1.0    17.4
2006 05 15    12 17.02   +30 17.7   51.215   51.620   113.1     1.0    17.4
2006 05 25    12 16.64   +30 14.4   51.350   51.618   104.8     1.1    17.4
2006 06 04    12 16.38   +30 10.0   51.492   51.616    96.5     1.1    17.4
2006 06 14    12 16.25   +30 04.8   51.638   51.615    88.1     1.1    17.4
2006 06 24    12 16.25   +29 58.7   51.783   51.613    79.8     1.1    17.4
2006 07 04    12 16.39   +29 52.0   51.923   51.611    71.6     1.1    17.4
2006 07 14    12 16.65   +29 44.8   52.054   51.609    63.6     1.0    17.4
2006 07 24    12 17.04   +29 37.3   52.173   51.608    55.7     0.9    17.4
2006 08 03    12 17.55   +29 29.7   52.276   51.606    48.3     0.8    17.4
2006 08 13    12 18.16   +29 22.1   52.360   51.604    41.4     0.7    17.4
2006 08 23    12 18.86   +29 14.9   52.424   51.602    35.4     0.7    17.4
2006 09 02    12 19.64   +29 08.0   52.464   51.600    30.9     0.6    17.4

Brian G. Marsden             (C) Copyright 2005 MPC           M.P.E.C. 2005-O42

Read MPEC 2005-O41 Read MPEC 2005-O43


Our Web policy. Index to the CBAT/MPC/ICQ pages.


Valid HTML 4.01!